EFW56R EGKK-EGJJ

Flight info

Callsign EFW56R
Flight time 0h 39m
Altitude 23000
Route IMVUR N63 LELNA
Aircraft A320/M-SDE3FGHIRWY/LB1

Departure

Time 2026-05-07 17:36
Airport London Gatwick Airport (EGKK)

Arrival

Time 2026-05-07 18:15
Airport Jersey Airport (EGJJ)
Time Latitude Longitude Altitude Speed Heading
2026-05-07 16:42 51.15447 -0.16421 164 ft 0 kts 77°
2026-05-07 17:21 51.15447 -0.16422 205 ft 1 kts 77°
2026-05-07 17:22 51.15444 -0.16445 213 ft 3 kts 77°
2026-05-07 17:22 51.15439 -0.16476 208 ft 2 kts 77°
2026-05-07 17:22 51.15434 -0.16501 213 ft 3 kts 34°
2026-05-07 17:22 51.15418 -0.16508 208 ft 3 kts 351°
2026-05-07 17:23 51.15403 -0.16504 205 ft 1 kts 348°
2026-05-07 17:23 51.15389 -0.16499 211 ft 2 kts 348°
2026-05-07 17:23 51.15385 -0.16498 211 ft 0 kts 348°
2026-05-07 17:28 51.15393 -0.16501 205 ft 2 kts 348°
2026-05-07 17:28 51.15411 -0.16524 214 ft 4 kts 302°
2026-05-07 17:28 51.15410 -0.16582 209 ft 6 kts 258°
2026-05-07 17:28 51.15399 -0.16664 214 ft 9 kts 258°
2026-05-07 17:29 51.15382 -0.16773 208 ft 11 kts 257°
2026-05-07 17:29 51.15364 -0.16903 207 ft 14 kts 258°
2026-05-07 17:29 51.15342 -0.17067 212 ft 16 kts 257°
2026-05-07 17:29 51.15315 -0.17259 215 ft 19 kts 257°
2026-05-07 17:30 51.15298 -0.17450 210 ft 15 kts 263°
2026-05-07 17:30 51.15277 -0.17626 205 ft 17 kts 257°
2026-05-07 17:30 51.15249 -0.17826 205 ft 20 kts 258°
2026-05-07 17:30 51.15217 -0.18058 210 ft 22 kts 257°
2026-05-07 17:31 51.15189 -0.18273 205 ft 13 kts 261°
2026-05-07 17:31 51.15173 -0.18427 215 ft 16 kts 257°
2026-05-07 17:31 51.15147 -0.18610 205 ft 18 kts 257°
2026-05-07 17:31 51.15119 -0.18823 205 ft 21 kts 257°
2026-05-07 17:32 51.15086 -0.19059 213 ft 23 kts 257°
2026-05-07 17:32 51.15052 -0.19313 209 ft 23 kts 257°
2026-05-07 17:32 51.15017 -0.19558 208 ft 23 kts 257°
2026-05-07 17:32 51.14993 -0.19733 205 ft 25 kts 257°
2026-05-07 17:33 51.14942 -0.20102 215 ft 27 kts 257°
2026-05-07 17:33 51.14908 -0.20353 209 ft 25 kts 257°
2026-05-07 17:33 51.14872 -0.20607 207 ft 20 kts 258°
2026-05-07 17:33 51.14840 -0.20836 215 ft 22 kts 257°
2026-05-07 17:34 51.14805 -0.21087 205 ft 22 kts 259°
2026-05-07 17:34 51.14775 -0.21244 205 ft 15 kts 257°
2026-05-07 17:34 51.14740 -0.21399 211 ft 11 kts 217°
2026-05-07 17:34 51.14675 -0.21381 208 ft 10 kts 143°
2026-05-07 17:35 51.14618 -0.21330 208 ft 10 kts 165°
2026-05-07 17:35 51.14546 -0.21282 208 ft 13 kts 139°
2026-05-07 17:35 51.14525 -0.21145 206 ft 12 kts 79°
2026-05-07 17:35 51.14551 -0.20960 208 ft 38 kts 78°
2026-05-07 17:36 51.14657 -0.20179 212 ft 103 kts 78°
2026-05-07 17:36 51.14849 -0.18782 210 ft 153 kts 77°
2026-05-07 17:36 51.15101 -0.17080 683 ft 158 kts 77°
2026-05-07 17:36 51.15348 -0.15379 1387 ft 158 kts 78°
2026-05-07 17:37 51.15591 -0.13580 1785 ft 175 kts 78°
2026-05-07 17:37 51.15862 -0.11568 2085 ft 198 kts 77°
2026-05-07 17:37 51.16169 -0.09293 2440 ft 220 kts 77°
2026-05-07 17:37 51.16538 -0.06867 2921 ft 228 kts 67°
2026-05-07 17:38 51.17587 -0.05048 3545 ft 229 kts 24°
2026-05-07 17:38 51.19149 -0.04676 4408 ft 231 kts 355°
2026-05-07 17:38 51.20740 -0.05103 5271 ft 234 kts 345°
2026-05-07 17:38 51.22177 -0.06335 5841 ft 240 kts 312°
2026-05-07 17:39 51.22889 -0.08727 5987 ft 255 kts 275°
2026-05-07 17:39 51.22750 -0.11635 6004 ft 268 kts 261°
2026-05-07 17:39 51.22407 -0.14565 6008 ft 270 kts 258°
2026-05-07 17:39 51.22016 -0.17502 6011 ft 271 kts 258°
2026-05-07 17:40 51.21623 -0.20440 6009 ft 271 kts 258°
2026-05-07 17:40 51.21242 -0.23392 6227 ft 274 kts 259°
2026-05-07 17:40 51.20872 -0.26371 7190 ft 274 kts 259°
2026-05-07 17:40 51.20512 -0.29358 8126 ft 275 kts 259°
2026-05-07 17:41 51.20157 -0.32366 9042 ft 277 kts 259°
2026-05-07 17:41 51.19802 -0.35394 9926 ft 279 kts 259°
2026-05-07 17:41 51.19422 -0.38448 10702 ft 282 kts 258°
2026-05-07 17:41 51.19022 -0.41528 11462 ft 286 kts 257°
2026-05-07 17:42 51.18619 -0.44556 12194 ft 289 kts 257°
2026-05-07 17:42 51.18197 -0.47712 12944 ft 293 kts 257°
2026-05-07 17:42 51.17772 -0.50904 13689 ft 296 kts 257°
2026-05-07 17:42 51.17239 -0.54086 14339 ft 301 kts 249°
2026-05-07 17:43 51.16416 -0.57294 14477 ft 324 kts 246°
2026-05-07 17:43 51.15517 -0.60670 14829 ft 337 kts 246°
2026-05-07 17:43 51.14588 -0.64129 15419 ft 341 kts 246°
2026-05-07 17:43 51.13650 -0.67621 16058 ft 344 kts 246°
2026-05-07 17:44 51.12705 -0.71139 16700 ft 347 kts 246°
2026-05-07 17:44 51.11751 -0.74698 17348 ft 350 kts 247°
2026-05-07 17:44 51.10794 -0.78274 17991 ft 353 kts 247°
2026-05-07 17:44 51.09827 -0.81876 18610 ft 356 kts 246°
2026-05-07 17:45 51.08846 -0.85514 19185 ft 359 kts 246°
2026-05-07 17:45 51.07856 -0.89172 19782 ft 361 kts 246°
2026-05-07 17:45 51.06873 -0.92811 20380 ft 364 kts 246°
2026-05-07 17:45 51.05876 -0.96505 20950 ft 367 kts 246°
2026-05-07 17:46 51.04862 -1.00260 21516 ft 370 kts 245°
2026-05-07 17:46 51.04036 -1.02692 21888 ft 372 kts 235°
2026-05-07 17:46 51.02255 -1.05673 22433 ft 375 kts 217°
2026-05-07 17:46 51.00086 -1.07996 22922 ft 379 kts 214°
2026-05-07 17:47 50.98257 -1.09890 23030 ft 377 kts 214°
2026-05-07 17:47 50.96092 -1.12115 23051 ft 364 kts 214°
2026-05-07 17:47 50.93974 -1.14285 23054 ft 361 kts 214°
2026-05-07 17:47 50.91867 -1.16444 23054 ft 361 kts 214°
2026-05-07 17:48 50.89761 -1.18603 23050 ft 360 kts 214°
2026-05-07 17:48 50.87656 -1.20762 23057 ft 360 kts 214°
2026-05-07 17:48 50.85553 -1.22920 23055 ft 360 kts 214°
2026-05-07 17:48 50.83453 -1.25081 23048 ft 360 kts 214°
2026-05-07 17:49 50.81358 -1.27241 23050 ft 360 kts 214°
2026-05-07 17:49 50.79259 -1.29398 23049 ft 360 kts 214°
2026-05-07 17:49 50.77159 -1.31552 23046 ft 360 kts 213°
2026-05-07 17:49 50.75060 -1.33701 23046 ft 360 kts 213°
2026-05-07 17:50 50.72958 -1.35849 23050 ft 360 kts 213°
2026-05-07 17:50 50.70847 -1.37998 23050 ft 360 kts 213°
2026-05-07 17:50 50.68741 -1.40138 23052 ft 361 kts 213°
2026-05-07 17:50 50.66633 -1.42281 23041 ft 361 kts 213°
2026-05-07 17:51 50.64525 -1.44425 23054 ft 361 kts 213°
2026-05-07 17:51 50.62420 -1.46564 23047 ft 361 kts 213°
2026-05-07 17:51 50.60307 -1.48705 23051 ft 361 kts 213°
2026-05-07 17:51 50.58199 -1.50839 23054 ft 361 kts 213°
2026-05-07 17:52 50.56088 -1.52975 23059 ft 361 kts 213°
2026-05-07 17:52 50.53982 -1.55108 23058 ft 361 kts 213°
2026-05-07 17:52 50.51901 -1.57213 23060 ft 360 kts 213°
2026-05-07 17:52 50.49791 -1.59343 23050 ft 360 kts 213°
2026-05-07 17:53 50.47680 -1.61469 23053 ft 360 kts 213°
2026-05-07 17:53 50.45571 -1.63590 23048 ft 360 kts 213°
2026-05-07 17:53 50.43460 -1.65712 23049 ft 360 kts 213°
2026-05-07 17:53 50.41352 -1.67827 23047 ft 360 kts 213°
2026-05-07 17:54 50.39245 -1.69943 23056 ft 360 kts 213°
2026-05-07 17:54 50.37138 -1.72058 23043 ft 360 kts 213°
2026-05-07 17:54 50.35031 -1.74167 23044 ft 359 kts 213°
2026-05-07 17:54 50.32924 -1.76273 23048 ft 359 kts 213°
2026-05-07 17:55 50.30818 -1.78376 23055 ft 359 kts 213°
2026-05-07 17:55 50.28717 -1.80476 23048 ft 359 kts 213°
2026-05-07 17:55 50.26611 -1.82579 23045 ft 359 kts 213°
2026-05-07 17:55 50.24510 -1.84675 23040 ft 359 kts 213°
2026-05-07 17:56 50.22407 -1.86771 23047 ft 359 kts 213°
2026-05-07 17:56 50.20304 -1.88861 23052 ft 358 kts 213°
2026-05-07 17:56 50.18200 -1.90948 23042 ft 358 kts 213°
2026-05-07 17:56 50.16098 -1.93028 23051 ft 358 kts 213°
2026-05-07 17:57 50.13994 -1.95110 23044 ft 358 kts 213°
2026-05-07 17:57 50.12604 -1.96485 23040 ft 358 kts 213°
2026-05-07 17:57 50.09796 -1.99262 23042 ft 357 kts 213°
2026-05-07 17:57 50.07697 -2.01334 23045 ft 357 kts 213°
2026-05-07 17:58 50.05601 -2.03399 23053 ft 357 kts 213°
2026-05-07 17:58 50.03487 -2.05482 22892 ft 363 kts 213°
2026-05-07 17:58 50.01369 -2.07569 22552 ft 357 kts 213°
2026-05-07 17:58 49.99272 -2.09596 22131 ft 354 kts 209°
2026-05-07 17:59 49.97010 -2.11056 21679 ft 352 kts 197°
2026-05-07 17:59 49.94631 -2.11900 21203 ft 350 kts 193°
2026-05-07 17:59 49.92258 -2.12702 20736 ft 348 kts 194°
2026-05-07 17:59 49.89900 -2.13503 20274 ft 345 kts 194°
2026-05-07 18:00 49.87593 -2.14289 19829 ft 343 kts 194°
2026-05-07 18:00 49.85269 -2.15079 19387 ft 341 kts 194°
2026-05-07 18:00 49.82955 -2.15865 18939 ft 339 kts 194°
2026-05-07 18:00 49.80661 -2.16647 18514 ft 337 kts 194°
2026-05-07 18:01 49.78377 -2.17427 18051 ft 335 kts 194°
2026-05-07 18:01 49.76104 -2.18201 17548 ft 334 kts 194°
2026-05-07 18:01 49.73845 -2.18965 17062 ft 332 kts 193°
2026-05-07 18:01 49.71600 -2.19723 16628 ft 329 kts 193°
2026-05-07 18:02 49.67206 -2.21465 15775 ft 324 kts 197°
2026-05-07 18:02 49.65053 -2.22454 15353 ft 322 kts 198°
2026-05-07 18:02 49.62915 -2.23454 14937 ft 320 kts 198°
2026-05-07 18:03 49.60792 -2.24438 14521 ft 318 kts 197°
2026-05-07 18:03 49.58662 -2.25368 14062 ft 318 kts 196°
2026-05-07 18:03 49.56527 -2.26253 13605 ft 318 kts 195°
2026-05-07 18:03 49.54397 -2.27117 13164 ft 316 kts 195°
2026-05-07 18:04 49.52278 -2.27974 12741 ft 313 kts 195°
2026-05-07 18:04 49.50179 -2.28823 12330 ft 311 kts 195°
2026-05-07 18:04 49.48098 -2.29666 11913 ft 308 kts 195°
2026-05-07 18:04 49.46032 -2.30505 11381 ft 309 kts 195°
2026-05-07 18:05 49.43914 -2.31366 10533 ft 321 kts 195°
2026-05-07 18:05 49.41728 -2.32256 9686 ft 329 kts 195°
2026-05-07 18:05 49.39495 -2.33165 8735 ft 334 kts 195°
2026-05-07 18:05 49.37289 -2.34129 7789 ft 325 kts 200°
2026-05-07 18:06 49.35404 -2.35919 7025 ft 316 kts 221°
2026-05-07 18:06 49.33837 -2.38111 6685 ft 295 kts 221°
2026-05-07 18:06 49.32368 -2.40160 6326 ft 278 kts 222°
2026-05-07 18:06 49.30963 -2.42077 5955 ft 263 kts 217°
2026-05-07 18:07 49.29786 -2.43778 5579 ft 255 kts 232°
2026-05-07 18:07 49.29218 -2.46367 4363 ft 275 kts 272°
2026-05-07 18:07 49.29703 -2.49334 3347 ft 274 kts 276°
2026-05-07 18:07 49.29728 -2.52048 3283 ft 246 kts 252°
2026-05-07 18:08 49.29114 -2.54356 3132 ft 225 kts 244°
2026-05-07 18:08 49.28736 -2.56632 3024 ft 217 kts 256°
2026-05-07 18:08 49.28223 -2.58671 3000 ft 200 kts 231°
2026-05-07 18:08 49.27232 -2.60081 3001 ft 191 kts 205°
2026-05-07 18:09 49.25991 -2.60675 3008 ft 186 kts 182°
2026-05-07 18:09 49.24724 -2.60416 3009 ft 185 kts 158°
2026-05-07 18:09 49.23639 -2.59380 3009 ft 187 kts 136°
2026-05-07 18:09 49.22928 -2.57725 3006 ft 189 kts 112°
2026-05-07 18:10 49.22476 -2.55829 3003 ft 190 kts 113°
2026-05-07 18:10 49.22015 -2.53941 3003 ft 189 kts 113°
2026-05-07 18:10 49.21549 -2.52052 3007 ft 190 kts 113°
2026-05-07 18:10 49.21084 -2.50171 3005 ft 189 kts 113°
2026-05-07 18:11 49.20618 -2.48293 3003 ft 189 kts 113°
2026-05-07 18:11 49.20312 -2.47052 3006 ft 188 kts 113°
2026-05-07 18:11 49.19692 -2.44539 3007 ft 189 kts 113°
2026-05-07 18:11 49.19229 -2.42655 3008 ft 190 kts 112°
2026-05-07 18:12 49.19018 -2.40690 2906 ft 186 kts 90°
2026-05-07 18:12 49.19171 -2.38739 2667 ft 183 kts 86°
2026-05-07 18:12 49.19337 -2.36826 2426 ft 179 kts 85°
2026-05-07 18:12 49.19495 -2.34993 2188 ft 169 kts 86°
2026-05-07 18:13 49.19642 -2.33265 1953 ft 159 kts 86°
2026-05-07 18:13 49.19779 -2.31658 1785 ft 145 kts 86°
2026-05-07 18:13 49.19903 -2.30188 1574 ft 138 kts 86°
2026-05-07 18:13 49.20023 -2.28758 1392 ft 134 kts 85°
2026-05-07 18:14 49.20140 -2.27360 1204 ft 132 kts 84°
2026-05-07 18:14 49.20257 -2.25968 1024 ft 132 kts 84°
2026-05-07 18:14 49.20355 -2.24579 851 ft 131 kts 83°
2026-05-07 18:14 49.20492 -2.23202 660 ft 132 kts 81°
2026-05-07 18:15 49.20602 -2.21814 483 ft 132 kts 81°
2026-05-07 18:15 49.20725 -2.20394 307 ft 132 kts 81°
2026-05-07 18:15 49.20829 -2.19197 285 ft 82 kts 82°
2026-05-07 18:15 49.20866 -2.18748 283 ft 22 kts 83°
2026-05-07 18:16 49.20885 -2.18509 282 ft 22 kts 87°
2026-05-07 18:16 49.20829 -2.18378 287 ft 14 kts 168°
2026-05-07 18:16 49.20746 -2.18454 284 ft 14 kts 233°
2026-05-07 18:16 49.20725 -2.18608 284 ft 16 kts 263°
2026-05-07 18:17 49.20711 -2.18790 284 ft 19 kts 263°
2026-05-07 18:17 49.20693 -2.18999 284 ft 21 kts 263°
2026-05-07 18:17 49.20680 -2.19194 284 ft 15 kts 275°
2026-05-07 18:17 49.20706 -2.19361 284 ft 17 kts 282°
2026-05-07 18:18 49.20697 -2.19544 284 ft 15 kts 260°
2026-05-07 18:18 49.20649 -2.19661 284 ft 9 kts 206°
2026-05-07 18:18 49.20630 -2.19667 284 ft 1 kts 185°
2026-05-07 18:18 49.20612 -2.19664 284 ft 4 kts 169°
2026-05-07 18:19 49.20581 -2.19648 287 ft 5 kts 160°
2026-05-07 18:19 49.20563 -2.19638 284 ft 2 kts 159°
2026-05-07 18:19 49.20562 -2.19637 284 ft 0 kts 159°